SCP
0 0 -0 0 0 0 0 0 0 0 0 0 0 0 -0 0 0 0 0 0 0 0 0 0 0 0 0 0 0 -0 -0 -0 -0 0 0 0 0 0 0 0 0 0 0 0 0 0 0 0 0
0 -0 0 0 0 0 0 0 0 0 0 0 0 0 0 0 0 0 0 0 0 0 0 0 0 0 0 -0 -0 -0 -0 -0 0 0 0 0 0 0 0 0 0 0 0 0 0 0 0 0 0
0 -0 0 0 0 0 0 0 0 0 0 0 0 0 0 0 0 0 0 0 0 0 0 0 0 0 -0 -0 -0 -0 -0 -0 0 0 0 0 0 0 0 0 0 0 0 0 0 0 0 0 0
0 0 0 0 0 0 0 0 0 0 0 0 0 0 0 0 0 0 0 0 0 0 0 0 0 0 -0 -0 -0 -0 -0 0 0 0 0 0 0 0 0 0 0 0 0 0 0 0 0 0 0
0 0 0 0 0 0 0 0 0 0 0 0 0 0 0 0 0 0 0 0 0 0 0 0 0 0 0 -0 -0 -0 0 0 0 0 0 0 0 0 0 0 0 0 0 0 0 0 0 0 0
0 0 0 0 0 0 0 0 0 0 0 0 0 0 0 0 0 0 0 0 0 0 0 0 0 0 0 -0 -0 0 0 0 0 0 0 0 0 0 0 0 0 0 0 0 0 0 0 0 0
0 0 0 0 0 0 0 0 0 0 0 0 0 0 0 0 0 0 0 0 0 0 0 0 0 0 0 0 0 0 0 0 0 0 0 0 0 0 0 0 0 0 0 0 0 0 0 0 0
0 0 0 0 0 0 0 0 0 0 0 0 0 0 0 0 0 0 0 0 0 0 0 0 0 0 0 0 0 0 0 0 0 0 0 0 0 0 0 0 0 0 0 0 0 0 0 0 0
0 0 0 0 0 0 0 0 0 0 0 0 0 0 0 0 0 0 0 0 0 0 0 0 0 0 0 0 0 0 0 0 0 0 0 0 0 0 0 0 0 0 0 0 0 0 0 0 0
0 0 0 0 0 0 0 0 0 0 0 0 0 0 0 0 0 0 0 0 0 0 0 0 0 0 0 0 0 0 0 0 0 0 0 0 0 0 0 0 0 0 0 0 0 0 0 0 0
0 0 0 0 0 0 0 0 0 0 0 0 0 0 0 0 0 0 0 0 0 0 0 0 0 0 0 0 0 0 0 0 0 0 0 0 0 0 0 0 0 0 0 0 0 0 0 0 0
0 0 0 0 0 0 0 0 0 0 0 0 0 0 0 0 0 0 0 0 0 0 0 0 0 0 0 0 0 0 0 0 0 0 0 0 0 0 0 0 0 0 0 0 0 0 0 0 0
0 0 0 0 0 0 0 0 0 0 0 0 0 0 0 0 0 0 0 0 0 0 0 0 0 0 0 0 0 0 0 0 0 0 0 0 0 0 0 0 0 0 0 0 0 0 0 0 0
0 0 0 0 0 0 0 0 0 0 0 0 0 0 0 0 0 0 0 0 0 0 0 0 0 0 0 0 0 0 0 0 0 0 0 0 0 0 0 0 0 0 0 0 0 0 0 0 0
0 0 0 0 0 0 0 0 0 0 0 0 0 0 0 0 0 0 0 0 0 0 0 0 0 0 0 0 0 0 0 0 0 0 0 0 0 0 0 0 0 0 0 0 0 0 0 0 0
0 0 0 0 0 0 0 0 0 0 0 0 0 0 0 0 0 0 0 0 0 0 0 0 0 0 0 0 0 0 0 0 0 0 0 0 0 0 0 0 0 0 0 0 0 0 0 0 0
0 0 0 0 0 0 0 0 0 0 0 0 0 0 0 0 0 0 0 0 0 0 0 0 0 0 0 0 0 0 0 0 0 0 0 0 0 0 0 0 0 0 0 0 0 0 0 0 0
0 0 0 0 -0 0 0 0 0 0 0 0 0 0 0 0 0 0 0 0 0 0 0 0 0 0 0 0 0 0 0 0 0 0 0 0 0 0 0 0 0 0 0 0 0 0 0 0 0
0 0 -0 -0 0 0 0 0 0 0 0 0 0 0 0 0 0 0 0 0 0 0 0 0 0 0 0 0 0 0 0 0 0 0 0 0 0 0 0 0 0 0 0 0 0 0 0 0 0
0 0 0 0 0 0 -0 0 0 0 0 0 0 0 0 0 0 0 0 0 0 0 0 0 0 0 0 0 0 0 0 0 0 0 0 0 0 0 0 0 0 0 0 0 0 0 0 0 0
0 0 0 0 0 0 0 -0 -0 0 0 0 0 0 0 0 0 0 0 0 0 0 0 0 0 0 0 0 0 0 0 0 0 0 0 0 0 0 0 0 0 0 0 0 0 0 0 0 0
0 0 0 0 0 0 0 -0 -0 0 0 0 0 0 0 0 0 0 0 0 0 0 0 0 0 0 0 0 0 0 0 0 0 0 0 0 0 0 0 0 0 0 0 0 0 0 0 0 0
0 0 0 0 0 0 0 0 -0 -0 0 0 0 0 0 0 0 0 0 0 0 0 0 0 0 0 0 0 0 0 0 0 0 0 0 0 0 0 0 0 0 0 0 0 0 0 0 0 0
0 0 0 0 0 0 0 0 -0 0 0 0 0 0 0 0 0 0 0 0 0 0 0 0 0 0 0 0 0 0 0 0 0 0 0 0 0 0 0 0 0 0 0 0 0 0 0 0 0
0 0 0 0 0 0 0 0 0 0 0 0 0 0 0 0 0 0 0 0 0 0 0 0 0 0 0 0 0 0 0 0 0 0 0 0 0 0 0 0 0 0 0 0 0 0 0 0 0
0 0 0 0 0 0 0 0 0 0 0 0 -0 0 0 0 0 0 0 0 0 0 0 0 0 0 0 0 0 0 0 0 0 0 0 0 0 0 0 0 0 0 0 0 0 0 0 0 0
0 0 0 0 0 0 0 0 0 0 0 0 0 0 0 0 0 0 0 0 0 0 0 0 0 0 0 0 0 0 0 0 0 0 0 0 0 0 0 0 0 0 0 0 0 0 0 0 0
0 0 0 0 0 0 0 0 0 0 0 0 0 0 0 0 0 0 0 0 0 0 0 0 0 0 0 0 0 0 0 0 0 0 0 0 0 0 0 0 0 0 0 0 0 0 0 0 0
0 0 0 0 0 0 0 0 0 0 0 0 0 0 0 0 0 0 0 0 0 0 0 0 0 0 0 0 0 0 0 0 0 0 0 0 0 0 0 0 0 0 0 0 0 0 0 0 0
0 0 0 0 0 0 0 0 0 0 0 0 0 0 0 0 0 0 0 0 0 0 0 0 0 0 0 0 0 0 0 0 0 0 0 0 0 0 0 0 0 0 0 0 0 0 0 0 0
Wind_Speed_500mb
27 29 31 5 5 8 8 12 4 5 5 7 7 7 14 10 10 8 24 37 31 34 31 29 28 23 20 19 16 16 16 14 12 11 11 10 9 9 11 10 9 10 10 10 10 11 11 13 13
26 30 17 1 7 1 11 8 13 12 10 28 22 10 7 6 9 15 33 37 37 33 31 30 28 26 22 21 19 18 15 15 13 13 13 13 12 12 11 9 9 10 12 12 14 17 17 16 16
27 26 8 4 6 11 10 6 9 6 26 13 11 8 8 12 15 22 21 39 36 34 30 27 26 25 22 21 21 20 20 20 18 20 19 17 17 19 19 18 17 18 19 17 18 18 19 22 21
18 8 4 4 16 14 13 4 7 12 10 11 18 9 9 12 18 28 33 40 38 34 30 27 27 25 23 23 24 23 22 21 20 20 21 22 22 20 21 23 24 23 23 25 27 27 27 24 24
7 5 3 7 15 13 9 10 41 15 15 17 25 12 10 20 20 28 36 38 35 33 30 28 27 27 29 29 27 27 25 22 21 22 22 22 22 22 24 26 24 23 25 28 29 30 31 32 34
8 4 3 10 16 13 9 24 29 10 16 22 12 27 13 21 27 33 36 36 33 30 29 26 27 29 30 29 29 28 24 21 21 18 15 13 13 14 12 13 13 14 18 22 24 27 29 31 31
11 6 10 11 11 16 10 24 15 17 18 18 19 14 12 33 36 34 39 38 34 30 27 24 21 19 17 16 17 16 16 15 12 9 7 6 5 6 6 8 8 11 13 16 17 19 21 24 27
13 7 7 10 14 26 13 18 20 28 17 18 27 14 13 46 44 42 41 38 34 30 27 25 23 21 19 18 18 17 14 11 9 6 5 4 4 6 6 7 8 10 10 12 15 16 19 21 24
17 4 9 11 12 13 10 9 11 15 23 24 24 15 16 45 51 49 48 45 41 37 33 30 28 26 23 21 20 17 14 11 8 5 4 3 5 7 7 10 11 13 15 17 17 20 22 24 26
12 9 16 9 4 8 11 7 18 13 12 13 25 26 27 49 55 53 52 51 48 43 39 36 33 29 27 24 20 18 14 12 10 8 6 6 8 9 11 14 15 16 17 19 19 22 24 25 28
13 11 7 5 5 9 9 6 11 12 10 30 55 45 41 54 55 50 48 46 44 41 42 40 36 33 28 25 21 17 14 11 9 6 5 8 9 10 12 13 14 16 17 20 21 25 28 30 33
5 11 12 6 8 8 6 13 10 29 22 21 46 50 51 57 60 55 53 50 50 48 43 41 39 33 29 25 21 18 14 10 8 7 6 8 10 9 11 13 15 17 19 22 25 28 30 31 34
9 7 9 16 17 20 19 22 20 24 49 24 23 46 57 59 57 54 50 48 49 53 50 46 42 36 32 27 24 20 15 11 9 9 7 8 9 9 11 14 17 21 24 28 30 33 35 37 38
13 10 17 18 24 16 10 11 10 25 48 51 35 40 58 65 61 57 57 57 61 56 55 49 45 40 35 31 27 22 17 13 11 8 8 9 11 12 15 18 22 26 29 31 33 36 38 40 42
7 7 10 18 15 10 4 20 27 62 53 47 67 64 61 61 69 67 59 62 66 64 57 54 47 44 39 36 31 26 20 13 10 8 9 10 13 14 16 20 24 29 32 33 36 38 40 43 43
7 1 4 2 16 7 11 28 7 7 44 62 55 69 65 73 73 70 66 63 66 65 65 55 52 50 44 41 35 29 21 16 12 10 11 11 15 17 18 23 28 31 33 35 38 41 42 44 47
3 10 10 9 16 8 12 19 13 7 10 41 61 64 67 74 74 79 73 66 70 71 68 62 57 55 49 45 40 32 25 18 13 12 14 15 16 18 22 24 27 30 32 35 38 40 45 47 49
12 11 11 10 11 8 9 44 34 53 39 40 40 51 66 69 85 78 76 71 73 75 72 65 62 59 53 48 45 40 30 22 15 12 16 18 17 19 23 25 28 30 32 35 37 40 40 45 52
5 6 7 5 6 6 18 36 37 39 34 42 62 73 68 76 75 78 75 76 75 79 79 74 70 67 62 61 56 46 33 23 17 14 17 18 19 22 24 25 27 29 31 33 38 39 39 41 52
9 8 12 8 3 5 13 35 37 35 28 51 61 65 86 87 78 72 80 78 84 83 84 78 73 71 68 62 56 46 32 28 21 15 17 19 21 25 25 26 27 28 29 31 34 37 39 44 50
8 11 7 10 5 9 12 23 16 16 26 45 60 69 71 84 89 82 79 84 88 90 91 84 78 73 69 63 60 53 40 34 26 19 17 21 24 25 27 26 28 29 30 30 30 33 39 43 48
9 8 4 4 2 9 2 14 14 15 23 13 33 47 67 74 75 79 81 87 92 91 91 84 75 71 68 65 66 59 44 35 27 23 18 23 25 26 28 28 28 28 28 27 27 30 35 44 50
10 5 6 3 3 8 5 7 17 11 16 22 16 41 50 57 63 73 79 82 87 85 88 83 75 71 69 69 68 60 51 41 35 29 22 25 27 27 28 28 28 27 26 25 26 28 35 43 50
10 10 13 9 5 5 16 15 9 11 12 9 5 15 23 28 42 56 62 71 82 86 86 81 76 74 71 70 68 65 57 47 42 34 28 28 29 30 29 29 28 25 24 23 26 31 39 45 52
5 11 2 5 2 14 6 9 11 20 19 12 7 20 17 23 30 39 55 70 78 86 88 82 77 75 72 71 71 68 60 53 47 41 35 31 32 32 30 29 26 24 23 23 28 35 42 49 57
13 12 10 15 9 7 3 15 14 21 18 35 36 26 21 27 30 38 49 59 70 79 80 81 78 75 70 70 73 70 61 58 52 47 40 34 35 34 31 29 26 25 22 24 32 38 45 53 59
12 12 5 9 3 6 10 15 20 19 21 10 15 23 31 33 34 37 42 49 59 69 74 76 75 71 68 72 72 70 64 62 57 49 44 39 37 34 32 29 27 24 22 27 34 40 48 56 62
9 2 5 4 4 9 10 11 15 10 13 12 12 23 34 31 32 37 44 48 53 56 59 64 63 59 62 66 67 66 65 62 58 54 47 41 38 36 32 30 27 24 24 29 36 42 50 59 65
9 7 4 5 8 9 4 12 14 15 14 18 21 34 32 32 31 34 40 46 53 58 58 56 55 57 57 58 60 64 66 64 61 56 49 43 40 37 33 31 27 24 25 31 36 44 52 60 67
4 12 14 9 12 9 5 21 4 10 5 11 7 12 29 36 38 38 39 43 56 60 61 58 57 55 52 53 58 63 65 65 63 58 51 45 41 38 34 31 27 25 25 30 36 44 52 60 67
Wind_Direction_500mb
326 333 326 270 43 64 264 255 283 171 181 127 135 178 155 83 155 197 160 182 178 186 188 192 199 202 204 204 204 204 209 216 221 236 251 269 285 284 264 267 272 283 297 299 303 307 313 306 299
320 326 324 165 105 53 266 239 229 206 149 125 106 94 55 132 143 160 161 182 187 189 191 195 203 210 215 217 215 214 217 222 226 240 251 262 269 277 271 276 287 284 278 283 288 290 290 293 300
317 314 294 132 159 198 227 227 212 181 163 174 125 107 144 159 183 175 178 188 184 188 193 197 207 216 222 224 229 229 231 238 235 244 256 270 270 265 266 275 284 282 274 273 276 280 279 279 281
309 284 241 140 236 247 210 225 187 161 177 171 151 111 145 188 165 169 180 185 187 191 198 204 211 219 225 230 231 229 230 234 237 246 259 267 271 268 264 269 277 277 273 275 275 271 271 275 278
276 238 237 237 245 256 253 260 185 189 180 173 173 184 168 180 163 174 184 186 191 193 203 213 222 233 239 237 232 231 231 236 244 248 255 260 261 264 268 272 272 273 272 273 273 274 273 271 271
228 170 185 231 242 263 263 224 184 211 192 171 155 149 172 189 189 184 198 193 193 200 208 219 233 239 240 235 229 229 232 236 239 242 243 250 255 258 265 272 275 277 273 273 272 271 270 270 268
178 132 225 231 256 277 237 197 185 195 179 206 176 141 190 190 189 196 197 199 200 204 213 219 220 216 202 181 174 169 174 173 177 189 200 217 233 252 256 264 271 271 274 276 282 280 280 276 272
198 140 249 228 233 268 228 204 212 185 200 176 180 187 206 190 184 191 196 205 207 210 209 209 205 194 177 166 154 158 163 164 179 189 193 201 223 247 255 266 273 285 289 299 295 301 293 291 289
190 178 232 230 200 244 262 181 197 183 165 180 197 208 205 187 183 190 196 202 207 207 207 208 202 191 184 173 168 169 175 177 181 202 215 228 247 258 275 285 295 300 303 300 303 298 295 294 292
175 185 220 212 217 261 283 219 186 168 172 198 205 204 190 185 190 194 203 208 208 209 210 204 195 192 187 182 178 183 185 187 190 203 225 250 267 280 288 293 298 300 300 300 301 296 294 295 294
196 218 204 266 276 275 276 271 207 168 224 209 207 198 187 186 193 201 208 216 219 213 208 204 195 194 188 190 191 189 195 189 189 208 236 267 277 286 291 298 301 301 305 304 302 300 303 303 302
233 251 253 259 268 295 268 297 273 222 227 251 235 221 199 197 201 206 211 214 209 209 210 204 198 198 197 197 198 198 200 194 206 225 238 267 282 296 308 309 308 309 307 306 305 306 307 308 307
221 261 261 254 256 264 268 251 242 250 238 241 217 214 214 214 215 217 220 218 214 211 209 205 202 200 203 204 203 202 194 199 224 246 260 275 292 309 313 315 315 314 315 314 316 316 317 314 312
193 222 260 254 249 241 235 256 232 244 237 230 214 212 220 220 222 218 214 216 214 213 210 204 203 203 205 208 205 202 199 213 236 260 292 306 315 315 321 321 319 318 318 320 319 318 314 315 315
190 253 282 224 223 239 199 280 231 247 239 235 229 231 228 227 223 222 226 222 219 215 209 206 205 206 207 208 204 205 208 222 247 270 289 308 304 310 316 316 319 320 321 321 317 314 315 317 315
289 123 265 198 149 203 150 264 226 320 231 235 236 234 230 229 227 228 227 229 221 217 212 211 212 211 208 207 204 210 215 225 246 270 293 301 302 307 314 320 321 320 318 316 315 316 318 320 320
190 275 219 301 199 139 172 268 262 224 241 243 239 234 233 231 232 230 229 228 222 219 215 215 218 215 211 206 205 213 221 230 247 272 288 284 293 302 310 315 316 314 313 314 316 321 324 326 325
204 220 251 232 206 198 210 262 268 269 266 255 253 245 237 236 233 232 229 224 221 218 218 220 221 216 213 209 208 214 221 228 244 267 283 281 286 295 303 311 316 313 315 317 319 324 328 329 327
147 222 262 277 203 211 229 257 261 272 262 255 249 247 243 238 238 235 229 224 220 217 217 219 220 217 213 209 210 215 222 228 241 268 290 283 287 294 302 315 315 315 315 319 325 327 329 332 334
230 250 260 259 146 205 292 273 274 265 250 238 244 237 241 241 237 232 226 224 220 218 219 220 222 220 217 214 216 221 222 229 236 262 288 281 284 294 309 316 312 310 317 322 324 327 333 337 343
228 207 219 236 312 227 307 274 257 259 247 255 245 245 245 243 238 229 222 220 219 219 220 220 221 220 219 216 216 220 220 228 232 252 283 290 288 297 303 306 308 311 316 320 325 331 333 336 337
247 206 162 170 121 248 170 286 281 276 277 254 254 242 243 243 239 235 224 219 218 220 222 223 223 221 219 219 220 225 229 236 237 251 277 294 288 290 300 304 304 306 312 318 323 328 333 331 331
227 118 141 109 183 355 232 280 272 272 277 263 271 256 246 243 240 234 226 223 221 219 222 224 225 222 222 222 223 227 229 233 238 250 273 292 286 288 294 298 299 303 311 314 320 326 325 326 325
132 70 43 47 68 296 199 190 232 228 238 286 295 311 246 241 236 232 229 223 221 220 220 221 222 223 224 224 225 227 230 233 239 249 267 288 286 284 289 293 295 301 305 308 314 320 324 323 321
97 101 327 341 347 231 151 183 262 267 248 232 255 279 254 230 222 216 217 218 219 218 217 218 220 223 224 226 227 229 231 235 239 246 260 279 282 280 284 287 291 294 295 300 309 317 321 320 320
184 174 170 206 205 252 37 234 253 243 283 260 267 252 219 204 205 206 210 211 214 216 217 216 219 222 225 227 228 229 231 235 239 244 256 272 278 276 280 283 285 285 288 297 307 316 320 320 321
193 206 198 103 67 35 224 280 294 261 255 258 231 198 208 205 203 203 208 209 210 211 214 216 219 224 227 228 228 229 232 235 239 245 253 266 273 273 276 279 280 280 283 295 307 317 321 322 324
178 224 111 359 186 246 272 266 233 273 246 224 233 226 222 221 215 208 209 207 204 206 208 213 218 222 225 226 228 231 235 239 240 244 252 262 268 268 271 272 274 273 282 297 309 317 323 325 326
156 204 201 138 168 183 273 258 220 236 209 212 232 233 226 221 222 216 210 206 201 200 202 206 213 220 226 230 232 235 238 238 240 244 250 259 262 263 266 268 268 267 282 299 311 320 326 326 325
243 189 165 142 224 230 179 256 275 264 178 207 257 256 244 235 231 224 214 211 209 207 208 211 216 221 229 235 237 239 239 239 241 243 248 255 257 258 261 262 261 266 282 299 313 321 326 327 326
Wind_Speed_850mb
27 29 31 5 5 8 8 12 4 5 5 7 7 7 14 10 10 8 24 37 31 34 31 29 28 23 20 19 16 16 16 14 12 11 11 10 9 9 11 10 9 10 10 10 10 11 11 13 13
26 30 17 1 7 1 11 8 13 12 10 28 22 10 7 6 9 15 33 37 37 33 31 30 28 26 22 21 19 18 15 15 13 13 13 13 12 12 11 9 9 10 12 12 14 17 17 16 16
27 26 8 4 6 11 10 6 9 6 26 13 11 8 8 12 15 22 21 39 36 34 30 27 26 25 22 21 21 20 20 20 18 20 19 17 17 19 19 18 17 18 19 17 18 18 19 22 21
18 8 4 4 16 14 13 4 7 12 10 11 18 9 9 12 18 28 33 40 38 34 30 27 27 25 23 23 24 23 22 21 20 20 21 22 22 20 21 23 24 23 23 25 27 27 27 24 24
7 5 3 7 15 13 9 10 41 15 15 17 25 12 10 20 20 28 36 38 35 33 30 28 27 27 29 29 27 27 25 22 21 22 22 22 22 22 24 26 24 23 25 28 29 30 31 32 34
8 4 3 10 16 13 9 24 29 10 16 22 12 27 13 21 27 33 36 36 33 30 29 26 27 29 30 29 29 28 24 21 21 18 15 13 13 14 12 13 13 14 18 22 24 27 29 31 31
11 6 10 11 11 16 10 24 15 17 18 18 19 14 12 33 36 34 39 38 34 30 27 24 21 19 17 16 17 16 16 15 12 9 7 6 5 6 6 8 8 11 13 16 17 19 21 24 27
13 7 7 10 14 26 13 18 20 28 17 18 27 14 13 46 44 42 41 38 34 30 27 25 23 21 19 18 18 17 14 11 9 6 5 4 4 6 6 7 8 10 10 12 15 16 19 21 24
17 4 9 11 12 13 10 9 11 15 23 24 24 15 16 45 51 49 48 45 41 37 33 30 28 26 23 21 20 17 14 11 8 5 4 3 5 7 7 10 11 13 15 17 17 20 22 24 26
12 9 16 9 4 8 11 7 18 13 12 13 25 26 27 49 55 53 52 51 48 43 39 36 33 29 27 24 20 18 14 12 10 8 6 6 8 9 11 14 15 16 17 19 19 22 24 25 28
13 11 7 5 5 9 9 6 11 12 10 30 55 45 41 54 55 50 48 46 44 41 42 40 36 33 28 25 21 17 14 11 9 6 5 8 9 10 12 13 14 16 17 20 21 25 28 30 33
5 11 12 6 8 8 6 13 10 29 22 21 46 50 51 57 60 55 53 50 50 48 43 41 39 33 29 25 21 18 14 10 8 7 6 8 10 9 11 13 15 17 19 22 25 28 30 31 34
9 7 9 16 17 20 19 22 20 24 49 24 23 46 57 59 57 54 50 48 49 53 50 46 42 36 32 27 24 20 15 11 9 9 7 8 9 9 11 14 17 21 24 28 30 33 35 37 38
13 10 17 18 24 16 10 11 10 25 48 51 35 40 58 65 61 57 57 57 61 56 55 49 45 40 35 31 27 22 17 13 11 8 8 9 11 12 15 18 22 26 29 31 33 36 38 40 42
7 7 10 18 15 10 4 20 27 62 53 47 67 64 61 61 69 67 59 62 66 64 57 54 47 44 39 36 31 26 20 13 10 8 9 10 13 14 16 20 24 29 32 33 36 38 40 43 43
7 1 4 2 16 7 11 28 7 7 44 62 55 69 65 73 73 70 66 63 66 65 65 55 52 50 44 41 35 29 21 16 12 10 11 11 15 17 18 23 28 31 33 35 38 41 42 44 47
3 10 10 9 16 8 12 19 13 7 10 41 61 64 67 74 74 79 73 66 70 71 68 62 57 55 49 45 40 32 25 18 13 12 14 15 16 18 22 24 27 30 32 35 38 40 45 47 49
12 11 11 10 11 8 9 44 34 53 39 40 40 51 66 69 85 78 76 71 73 75 72 65 62 59 53 48 45 40 30 22 15 12 16 18 17 19 23 25 28 30 32 35 37 40 40 45 52
5 6 7 5 6 6 18 36 37 39 34 42 62 73 68 76 75 78 75 76 75 79 79 74 70 67 62 61 56 46 33 23 17 14 17 18 19 22 24 25 27 29 31 33 38 39 39 41 52
9 8 12 8 3 5 13 35 37 35 28 51 61 65 86 87 78 72 80 78 84 83 84 78 73 71 68 62 56 46 32 28 21 15 17 19 21 25 25 26 27 28 29 31 34 37 39 44 50
8 11 7 10 5 9 12 23 16 16 26 45 60 69 71 84 89 82 79 84 88 90 91 84 78 73 69 63 60 53 40 34 26 19 17 21 24 25 27 26 28 29 30 30 30 33 39 43 48
9 8 4 4 2 9 2 14 14 15 23 13 33 47 67 74 75 79 81 87 92 91 91 84 75 71 68 65 66 59 44 35 27 23 18 23 25 26 28 28 28 28 28 27 27 30 35 44 50
10 5 6 3 3 8 5 7 17 11 16 22 16 41 50 57 63 73 79 82 87 85 88 83 75 71 69 69 68 60 51 41 35 29 22 25 27 27 28 28 28 27 26 25 26 28 35 43 50
10 10 13 9 5 5 16 15 9 11 12 9 5 15 23 28 42 56 62 71 82 86 86 81 76 74 71 70 68 65 57 47 42 34 28 28 29 30 29 29 28 25 24 23 26 31 39 45 52
5 11 2 5 2 14 6 9 11 20 19 12 7 20 17 23 30 39 55 70 78 86 88 82 77 75 72 71 71 68 60 53 47 41 35 31 32 32 30 29 26 24 23 23 28 35 42 49 57
13 12 10 15 9 7 3 15 14 21 18 35 36 26 21 27 30 38 49 59 70 79 80 81 78 75 70 70 73 70 61 58 52 47 40 34 35 34 31 29 26 25 22 24 32 38 45 53 59
12 12 5 9 3 6 10 15 20 19 21 10 15 23 31 33 34 37 42 49 59 69 74 76 75 71 68 72 72 70 64 62 57 49 44 39 37 34 32 29 27 24 22 27 34 40 48 56 62
9 2 5 4 4 9 10 11 15 10 13 12 12 23 34 31 32 37 44 48 53 56 59 64 63 59 62 66 67 66 65 62 58 54 47 41 38 36 32 30 27 24 24 29 36 42 50 59 65
9 7 4 5 8 9 4 12 14 15 14 18 21 34 32 32 31 34 40 46 53 58 58 56 55 57 57 58 60 64 66 64 61 56 49 43 40 37 33 31 27 24 25 31 36 44 52 60 67
4 12 14 9 12 9 5 21 4 10 5 11 7 12 29 36 38 38 39 43 56 60 61 58 57 55 52 53 58 63 65 65 63 58 51 45 41 38 34 31 27 25 25 30 36 44 52 60 67
Wind_Direction_850mb
326 333 326 270 43 64 264 255 283 171 181 127 135 178 155 83 155 197 160 182 178 186 188 192 199 202 204 204 204 204 209 216 221 236 251 269 285 284 264 267 272 283 297 299 303 307 313 306 299
320 326 324 165 105 53 266 239 229 206 149 125 106 94 55 132 143 160 161 182 187 189 191 195 203 210 215 217 215 214 217 222 226 240 251 262 269 277 271 276 287 284 278 283 288 290 290 293 300
317 314 294 132 159 198 227 227 212 181 163 174 125 107 144 159 183 175 178 188 184 188 193 197 207 216 222 224 229 229 231 238 235 244 256 270 270 265 266 275 284 282 274 273 276 280 279 279 281
309 284 241 140 236 247 210 225 187 161 177 171 151 111 145 188 165 169 180 185 187 191 198 204 211 219 225 230 231 229 230 234 237 246 259 267 271 268 264 269 277 277 273 275 275 271 271 275 278
276 238 237 237 245 256 253 260 185 189 180 173 173 184 168 180 163 174 184 186 191 193 203 213 222 233 239 237 232 231 231 236 244 248 255 260 261 264 268 272 272 273 272 273 273 274 273 271 271
228 170 185 231 242 263 263 224 184 211 192 171 155 149 172 189 189 184 198 193 193 200 208 219 233 239 240 235 229 229 232 236 239 242 243 250 255 258 265 272 275 277 273 273 272 271 270 270 268
178 132 225 231 256 277 237 197 185 195 179 206 176 141 190 190 189 196 197 199 200 204 213 219 220 216 202 181 174 169 174 173 177 189 200 217 233 252 256 264 271 271 274 276 282 280 280 276 272
198 140 249 228 233 268 228 204 212 185 200 176 180 187 206 190 184 191 196 205 207 210 209 209 205 194 177 166 154 158 163 164 179 189 193 201 223 247 255 266 273 285 289 299 295 301 293 291 289
190 178 232 230 200 244 262 181 197 183 165 180 197 208 205 187 183 190 196 202 207 207 207 208 202 191 184 173 168 169 175 177 181 202 215 228 247 258 275 285 295 300 303 300 303 298 295 294 292
175 185 220 212 217 261 283 219 186 168 172 198 205 204 190 185 190 194 203 208 208 209 210 204 195 192 187 182 178 183 185 187 190 203 225 250 267 280 288 293 298 300 300 300 301 296 294 295 294
196 218 204 266 276 275 276 271 207 168 224 209 207 198 187 186 193 201 208 216 219 213 208 204 195 194 188 190 191 189 195 189 189 208 236 267 277 286 291 298 301 301 305 304 302 300 303 303 302
233 251 253 259 268 295 268 297 273 222 227 251 235 221 199 197 201 206 211 214 209 209 210 204 198 198 197 197 198 198 200 194 206 225 238 267 282 296 308 309 308 309 307 306 305 306 307 308 307
221 261 261 254 256 264 268 251 242 250 238 241 217 214 214 214 215 217 220 218 214 211 209 205 202 200 203 204 203 202 194 199 224 246 260 275 292 309 313 315 315 314 315 314 316 316 317 314 312
193 222 260 254 249 241 235 256 232 244 237 230 214 212 220 220 222 218 214 216 214 213 210 204 203 203 205 208 205 202 199 213 236 260 292 306 315 315 321 321 319 318 318 320 319 318 314 315 315
190 253 282 224 223 239 199 280 231 247 239 235 229 231 228 227 223 222 226 222 219 215 209 206 205 206 207 208 204 205 208 222 247 270 289 308 304 310 316 316 319 320 321 321 317 314 315 317 315
289 123 265 198 149 203 150 264 226 320 231 235 236 234 230 229 227 228 227 229 221 217 212 211 212 211 208 207 204 210 215 225 246 270 293 301 302 307 314 320 321 320 318 316 315 316 318 320 320
190 275 219 301 199 139 172 268 262 224 241 243 239 234 233 231 232 230 229 228 222 219 215 215 218 215 211 206 205 213 221 230 247 272 288 284 293 302 310 315 316 314 313 314 316 321 324 326 325
204 220 251 232 206 198 210 262 268 269 266 255 253 245 237 236 233 232 229 224 221 218 218 220 221 216 213 209 208 214 221 228 244 267 283 281 286 295 303 311 316 313 315 317 319 324 328 329 327
147 222 262 277 203 211 229 257 261 272 262 255 249 247 243 238 238 235 229 224 220 217 217 219 220 217 213 209 210 215 222 228 241 268 290 283 287 294 302 315 315 315 315 319 325 327 329 332 334
230 250 260 259 146 205 292 273 274 265 250 238 244 237 241 241 237 232 226 224 220 218 219 220 222 220 217 214 216 221 222 229 236 262 288 281 284 294 309 316 312 310 317 322 324 327 333 337 343
228 207 219 236 312 227 307 274 257 259 247 255 245 245 245 243 238 229 222 220 219 219 220 220 221 220 219 216 216 220 220 228 232 252 283 290 288 297 303 306 308 311 316 320 325 331 333 336 337
247 206 162 170 121 248 170 286 281 276 277 254 254 242 243 243 239 235 224 219 218 220 222 223 223 221 219 219 220 225 229 236 237 251 277 294 288 290 300 304 304 306 312 318 323 328 333 331 331
227 118 141 109 183 355 232 280 272 272 277 263 271 256 246 243 240 234 226 223 221 219 222 224 225 222 222 222 223 227 229 233 238 250 273 292 286 288 294 298 299 303 311 314 320 326 325 326 325
132 70 43 47 68 296 199 190 232 228 238 286 295 311 246 241 236 232 229 223 221 220 220 221 222 223 224 224 225 227 230 233 239 249 267 288 286 284 289 293 295 301 305 308 314 320 324 323 321
97 101 327 341 347 231 151 183 262 267 248 232 255 279 254 230 222 216 217 218 219 218 217 218 220 223 224 226 227 229 231 235 239 246 260 279 282 280 284 287 291 294 295 300 309 317 321 320 320
184 174 170 206 205 252 37 234 253 243 283 260 267 252 219 204 205 206 210 211 214 216 217 216 219 222 225 227 228 229 231 235 239 244 256 272 278 276 280 283 285 285 288 297 307 316 320 320 321
193 206 198 103 67 35 224 280 294 261 255 258 231 198 208 205 203 203 208 209 210 211 214 216 219 224 227 228 228 229 232 235 239 245 253 266 273 273 276 279 280 280 283 295 307 317 321 322 324
178 224 111 359 186 246 272 266 233 273 246 224 233 226 222 221 215 208 209 207 204 206 208 213 218 222 225 226 228 231 235 239 240 244 252 262 268 268 271 272 274 273 282 297 309 317 323 325 326
156 204 201 138 168 183 273 258 220 236 209 212 232 233 226 221 222 216 210 206 201 200 202 206 213 220 226 230 232 235 238 238 240 244 250 259 262 263 266 268 268 267 282 299 311 320 326 326 325
243 189 165 142 224 230 179 256 275 264 178 207 257 256 244 235 231 224 214 211 209 207 208 211 216 221 229 235 237 239 239 239 241 243 248 255 257 258 261 262 261 266 282 299 313 321 326 327 326